Location: Majestic Skies Ranch
(34.0000°N, 105.9300°W)
Time: 03:39:51
(UTC-06:00)

ISS - Visible Passes

Search period start: 26 May 2015 00:00
Search period end: 05 June 2015 00:00
Orbit: 399 x 404 km, 51.6° (Epoch: 26 May)

Date Brightness Start Highest point End Pass type
(mag) Time Alt. Az. Time Alt. Az. Time Alt. Az.
29 May -0.2 05:03:13 10° NNW 05:05:26 17° NNE 05:07:42 10° ENE visible
30 May 0.3 04:11:13 10° NNE 04:11:53 11° NNE 04:12:38 10° NE visible
30 May -1.6 20:47:09 10° SSE 20:48:55 14° SE 20:50:48 10° E visible
30 May -1.9 22:22:03 10° WSW 22:25:07 39° NW 22:28:10 10° NNE visible
31 May -1.5 04:52:27 10° NNW 04:55:29 35° NE 04:58:32 10° ESE visible
31 May -3.4 21:28:34 10° SW 21:31:48 88° NW 21:35:03 10° NE visible
31 May 0.3 23:07:32 10° NW 23:08:40 11° NNW 23:09:42 10° N visible
01 Jun -0.4 03:59:38 10° NNW 04:02:03 19° NNE 04:04:31 10° E visible
01 Jun -2.8 20:35:33 10° SSW 20:38:34 37° SE 20:41:37 10° ENE visible
01 Jun -0.3 22:12:44 10° W 22:15:06 18° NNW 22:17:26 10° NNE visible
02 Jun 0.3 03:07:15 10° N 03:08:30 12° NNE 03:09:48 10° NE visible
02 Jun -3.4 04:42:04 10° NW 04:45:20 86° SW 04:48:35 10° SE visible
02 Jun -1.4 21:18:39 10° WSW 21:21:38 33° NW 21:24:36 10° NNE visible
03 Jun -2.0 03:48:53 10° NNW 03:52:00 41° NE 03:55:06 10° ESE visible
03 Jun 0.5 22:05:00 10° NNW 22:05:12 10° NNW 22:05:20 10° NNW visible
04 Jun -0.6 02:55:57 10° NNW 03:02:23 - E 02:57:32 19° N visible
04 Jun -2.2 04:35:51 25° SSW 04:35:51 25° SSW 04:37:50 10° SSE visible
04 Jun -0.1 21:09:25 10° WNW 21:11:35 16° NNW 21:13:41 10° N visible
